Debrecen, Hungary

9:59 AM CET on February 23, 2018 (GMT +0100)
Debrecen

Weather History for LHDC - December, 2013

Change the Weather History Date:

Friday, December 6, 2013

  Actual Average Record
Temperature  
Mean Temperature 36 °F -  
Max Temperature 41 °F 36 °F - ()
Min Temperature 29 °F 26 °F - ()
Degree Days  
Heating Degree Days 30    
Moisture  
Dew Point 27 °F    
Average Humidity 72    
Maximum Humidity 100    
Minimum Humidity 36    
Precipitation  
Precipitation 0.00 in 0.06 in - ()
Sea Level Pressure  
Sea Level Pressure 29.77 in    
Wind  
Wind Speed 17 mph ()    
Max Wind Speed 25 mph    
Max Gust Speed 39 mph    
Visibility 5.4 miles    
Events      
T = Trace of Precipitation, MM = Missing Value Source: Averaged Metar Reports

Daily Weather History Graph

Daily Weather History Graph

Search for Another Location

Airport or City:

Trip Planner

Search our weather history database for the weather conditions in past years. The results will help you decide how hot, cold, wet, or windy it might be!

Date:

Astronomy

Dec. 06, 2013 Rise Set
Actual Time 7:06 AM CET 3:43 PM CET
Civil Twilight 6:30 AM CET 4:18 PM CET
Nautical Twilight 5:51 AM CET 4:57 PM CET
Astronomical Twilight 5:14 AM CET 5:34 PM CET
Moon 9:49 AM CET (12/6) 8:03 PM CET (12/6)
Length of Visible Light 9h 47m
Length of Day
8h 36m
Waxing Crescent, 17% of the Moon is Illuminated
Dec 6
Waxing Crescent
Dec 9
First Quarter
Dec 17
Full
Dec 25
Last Quarter
Jan 1
New

Hourly Weather History & Observations

Time (CET) Temp. Windchill Dew Point Humidity Pressure Visibility Wind Dir Wind Speed Gust Speed Precip Events Conditions
1:00 AM 30 °F - 29 °F 94% 29.92 in - South 20.1 mph - -  
4:20 AM 30.2 °F 18.9 °F 28.4 °F 93% 29.80 in - SSW 16.1 mph - N/A   Unknown
5:07 AM 30.2 °F 17.4 °F 30.2 °F 100% 29.74 in - SSW 20.7 mph - N/A   Unknown
5:15 AM 30.2 °F 17.4 °F 30.2 °F 100% 29.74 in 5.0 mi SSW 20.7 mph - N/A   Mostly Cloudy
5:45 AM 30.2 °F 18.1 °F 30.2 °F 100% 29.71 in 5.0 mi SSW 18.4 mph - N/A   Overcast
6:14 AM - - - N/A% - 6.2 mi SW 15.0 mph - N/A   Overcast
6:15 AM 32.0 °F 20.1 °F 30.2 °F 93% 29.71 in 6.2 mi SSW 19.6 mph - N/A   Mostly Cloudy
6:45 AM 30.2 °F 20.2 °F 28.4 °F 93% 29.74 in 4.3 mi SSW 12.7 mph - N/A   Scattered Clouds
7:00 AM 31 °F - 28 °F 85% 29.75 in 4 mi SSW 13.4 mph - -   Partly Cloudy
7:15 AM 32.0 °F 22.5 °F 30.2 °F 93% 29.74 in 3.7 mi SW 12.7 mph - N/A   Mostly Cloudy
7:45 AM 32.0 °F 22.5 °F 30.2 °F 93% 29.74 in 3.7 mi SW 12.7 mph - N/A   Mostly Cloudy
8:15 AM 33.8 °F 23.9 °F 30.2 °F 87% 29.74 in 3.7 mi SW 15.0 mph - N/A   Mostly Cloudy
8:45 AM 33.8 °F 24.8 °F 30.2 °F 87% 29.77 in 5.0 mi SW 12.7 mph - N/A   Mostly Cloudy
8:58 AM 33.8 °F 25.8 °F 30.2 °F 87% 29.77 in 4.3 mi WSW 10.4 mph - N/A   Mostly Cloudy
9:00 AM - - - N/A% - 3.7 mi SW 15.0 mph - N/A   Mostly Cloudy
9:15 AM 35.6 °F 25.9 °F 30.2 °F 81% 29.74 in 5.0 mi West 16.1 mph - N/A   Mostly Cloudy
9:45 AM 33.8 °F 23.5 °F 30.2 °F 87% 29.77 in 6.2 mi WSW 16.1 mph - N/A   Scattered Clouds
10:07 AM 35.6 °F 25.2 °F 30.2 °F 81% 29.77 in - WSW 18.4 mph - N/A   Unknown
10:15 AM 35.6 °F 24.8 °F 30.2 °F 81% 29.77 in 6.2 mi West 19.6 mph - N/A   Partly Cloudy
10:45 AM 39.2 °F 29.0 °F 32.0 °F 75% 29.77 in 6.2 mi West 21.9 mph - N/A   Partly Cloudy
11:15 AM 39.2 °F 29.3 °F 30.2 °F 70% 29.77 in 6.2 mi West 20.7 mph - N/A   Partly Cloudy
11:39 AM 41.0 °F 31.1 °F 24.8 °F 53% 29.77 in - West 23.0 mph 39.1 mph N/A   Unknown
11:45 AM 41.0 °F 30.9 °F 24.8 °F 53% 29.77 in 6.2 mi West 24.2 mph 38.0 mph N/A   Partly Cloudy
12:00 PM - - - N/A% - 6.2 mi West 20.7 mph 36.8 mph N/A   Mostly Cloudy
12:15 PM 41.0 °F 30.7 °F 28.4 °F 61% 29.77 in 6.2 mi West 25.3 mph 36.8 mph N/A   Partly Cloudy
12:45 PM 41.0 °F 30.9 °F 24.8 °F 53% 29.77 in 6.2 mi West 24.2 mph - N/A   Partly Cloudy
1:00 PM 42 °F - 24 °F 36% 29.78 in 25 mi West 22.4 mph - -   Partly Cloudy
1:15 PM 41.0 °F 30.9 °F 24.8 °F 53% 29.77 in 6.2 mi West 24.2 mph - N/A   Partly Cloudy
1:45 PM 41.0 °F 30.7 °F 23.0 °F 49% 29.77 in 6.2 mi West 25.3 mph - N/A   Partly Cloudy
1:46 PM 41.0 °F 30.7 °F 21.2 °F 45% 29.77 in - West 25.3 mph 39.1 mph N/A   Unknown
2:15 PM 41.0 °F 30.7 °F 23.0 °F 49% 29.77 in 6.2 mi West 25.3 mph - N/A   Partly Cloudy
2:45 PM 39.2 °F 28.7 °F 23.0 °F 52% 29.77 in 6.2 mi West 23.0 mph - N/A   Partly Cloudy
3:15 PM 39.2 °F 30.2 °F 23.0 °F 52% 29.77 in 6.2 mi West 17.3 mph - N/A   Partly Cloudy
3:45 PM 37.4 °F 28.2 °F 23.0 °F 56% 29.77 in - WSW 16.1 mph - N/A   Clear
4:15 PM 37.4 °F 27.5 °F 23.0 °F 56% 29.77 in - West 18.4 mph - N/A   Clear
4:45 PM 35.6 °F 25.5 °F 23.0 °F 60% 29.77 in - WSW 17.3 mph - N/A   Clear
5:00 PM - - - N/A% - - North - - N/A   Unknown
6:48 PM 33.8 °F 23.5 °F 23.0 °F 65% 29.77 in - West 16.1 mph 27.6 mph N/A   Unknown
7:00 PM 34 °F - 24 °F 55% 29.79 in - West 15.7 mph - -